Regional Weather Roundup
Issued by NWS

Home | Current Version | Previous Version | Text Only | Print | Product List | Glossary On
Versions: 1 2 3 4 5 6 7 8 9 10 11 12 13 14 15 16 17 18 19 20 21 22 23 24 25 26 27 28 29 30 31 32 33 34 35 36 37 38 39 40 41 42 43 44 45 46 47 48 49 50
000
ASUS43 KTOP 011608
RWRKS

WEATHER ROUNDUP FOR KANSAS
NATIONAL WEATHER SERVICE GOODLAND KS
1100 AM CDT SAT AUG 01 2015

NOTE:  "FAIR" INDICATES FEW OR NO CLOUDS BELOW 12,000 FEET WITH NO
SIGNIFICANT WEATHER AND/OR OBSTRUCTIONS TO VISIBILITY.

KSZ001>006-013>018-027>032-041>047-011700-
NORTHWEST KANSAS

CITY           SKY/WX    TMP DP  RH WIND       PRES   REMARKS
GOODLAND       SUNNY     82  61  48 SW15      30.13F
HAYS           SUNNY     84  66  54 S7        30.09F
HILL CITY      SUNNY     85  67  54 VRB7      30.11R
RUSSELL        SUNNY     84  69  60 VRB6      30.08F
$$

KSZ061>065-074>080-084>089-011700-
SOUTHWEST KANSAS

CITY           SKY/WX    TMP DP  RH WIND       PRES   REMARKS
DODGE CITY     MOSUNNY   81  64  56 S7        30.12F
ELKHART          N/A     78  65  64 S10         N/A
GARDEN CITY    SUNNY     79  67  66 S8        30.12F
GREAT BEND     MOSUNNY   82  70  65 SW7       30.09F
LIBERAL        SUNNY     81  70  69 SW6       30.12F
PRATT          SUNNY     82  68  61 S6        30.12S
$$

KSZ066>073-081>083-090>101-011700-
SOUTHEAST KANSAS

CITY           SKY/WX    TMP DP  RH WIND       PRES   REMARKS
CHANUTE        SUNNY     85  71  63 CALM      30.09S
COFFEYVILLE    SUNNY     85  69  58 SW6       30.08S
HUTCHINSON     SUNNY     85  70  60 SE6       30.09F
MEDICINE LODGE   N/A     81  70  69 SE6       30.10F
NEWTON         SUNNY     84  68  58 S5        30.12S
PARSONS        SUNNY     85  72  65 CALM      30.10S
WICHITA INTL   MOSUNNY   82  72  71 S7        30.09S
WICHITA JABRA  MOSUNNY   83  71  67 SW3       30.10R
WICHITA MCCONL SUNNY     83  71  67 SE7       30.10S
WINFIELD       SUNNY     84  74  71 SW6       30.10S
$$

KSZ007>012-019>026-033>040-048>060-102>105-011700-
NORTHEAST KANSAS

CITY           SKY/WX    TMP DP  RH WIND       PRES   REMARKS
CONCORDIA      SUNNY     84  69  60 NE6       30.08F
EMPORIA        SUNNY     85  70  60 CALM      30.09S
LAWRENCE       SUNNY     85  75  72 W6        30.07F
MANHATTAN      SUNNY     86  73  65 CALM      30.07F
MARYSVILLE     MOSUNNY   81  68  65 N9        30.08F
OLATHE IND     MOSUNNY   85  74  69 W12       30.09S
OLATHE EXE     PTSUNNY   84  73  69 W8        30.08S
SALINA         SUNNY     87  71  58 W6        30.07S
TOPEKA BILLARD SUNNY     85  74  69 W3        30.07F
TOPEKA FORBES  SUNNY     87  73  62 NW6       30.08F
$$



USA.gov is the U.S. government's official web portal to all federal, state and local government web resources and services.